Theta_e
330 328 327 329 325 322 324 324 320 322 328 326 319 318 321 320 319 321 321 322 327 331 335 338 339 339 340 341 341 340 342 343 343 342 344 344 344 344 345 346 348 350 349 349 352 354 357 357 357 356 357 358 358 359 360 361 361 360 357 353 347 343 343
329 330 328 328 327 325 323 319 321 326 327 326 323 319 319 319 318 321 321 320 323 324 328 336 340 340 340 341 341 339 342 343 342 342 343 343 345 346 346 346 348 351 350 350 353 356 357 358 357 357 357 357 357 358 359 360 360 360 358 354 347 343 343
329 330 327 326 327 328 325 323 326 326 320 319 321 319 318 318 318 320 321 320 322 322 326 334 337 339 340 340 342 340 340 342 341 341 344 346 345 345 345 345 347 351 351 351 354 357 357 357 357 357 357 357 357 357 357 359 359 358 358 356 348 342 343
329 328 326 322 323 326 326 325 327 326 321 319 320 320 319 318 319 320 320 319 322 326 331 335 337 340 341 341 343 342 339 341 340 339 344 348 346 344 345 343 345 349 350 351 353 356 358 358 358 359 358 357 358 357 358 360 361 360 359 355 347 342 344
327 324 325 323 323 324 323 321 321 322 323 322 322 321 320 320 320 320 320 318 320 330 336 338 339 342 342 340 343 343 341 339 339 338 341 345 345 343 343 343 344 347 348 350 352 355 357 358 358 359 359 358 358 358 359 361 363 361 358 353 346 342 343
322 323 328 329 327 327 324 322 320 320 321 321 319 319 320 321 320 320 320 318 321 331 338 339 341 341 339 339 341 342 340 339 339 339 339 341 343 342 342 344 344 345 347 351 353 354 355 357 359 359 360 359 357 358 361 363 365 363 359 352 345 343 344
325 329 331 329 328 330 328 325 325 324 323 320 316 316 318 319 320 321 320 318 323 334 341 341 342 341 338 338 341 341 340 339 339 339 338 339 341 342 343 344 344 343 346 348 350 351 351 354 357 359 360 360 357 359 361 363 364 365 361 354 348 345 345
328 330 331 331 330 330 326 326 327 325 323 322 321 321 322 319 318 319 320 318 322 333 343 344 340 340 339 337 340 340 338 339 339 338 338 339 341 342 343 345 345 344 345 346 347 348 348 349 353 359 361 361 360 360 361 362 364 364 362 359 356 351 346
324 325 326 326 327 327 326 326 327 326 325 325 324 324 325 321 319 320 319 318 322 332 344 345 339 338 338 336 338 339 338 339 339 338 339 341 343 343 345 346 346 345 346 347 348 349 350 350 353 358 361 362 362 360 360 361 362 363 361 360 361 356 350
319 320 320 320 322 325 325 326 327 327 326 325 322 320 319 318 322 324 319 318 325 336 343 341 338 338 339 339 337 337 339 338 337 339 343 344 343 343 345 346 345 345 346 347 348 348 350 353 355 358 360 362 362 360 359 360 359 360 359 358 360 360 357
321 322 324 327 327 324 322 323 325 326 326 326 324 319 315 318 321 321 324 327 328 333 338 339 338 337 338 340 338 337 340 339 337 342 345 345 344 344 348 346 344 344 345 346 348 349 353 356 356 357 359 361 362 360 358 357 356 357 357 356 357 360 362
325 328 331 331 328 325 323 323 324 325 326 326 324 318 318 323 320 316 328 340 330 329 336 339 339 339 340 342 340 337 339 339 337 340 343 343 344 348 351 349 345 346 345 345 347 349 354 358 357 357 358 359 360 359 357 355 354 354 355 355 354 357 361
327 329 330 330 330 328 327 326 325 325 325 324 323 321 323 327 321 318 330 342 335 331 333 334 338 341 340 339 339 337 338 339 338 343 346 345 348 355 357 354 350 348 349 350 349 349 354 359 359 357 357 357 359 358 355 352 352 353 353 354 353 353 357
327 328 329 330 330 328 327 327 327 326 326 325 323 325 325 327 326 325 331 338 336 332 332 333 335 337 337 336 337 336 337 336 336 341 345 342 346 354 356 355 352 348 347 351 353 355 358 360 359 357 356 357 358 356 353 350 350 351 352 352 352 352 354
325 329 329 329 329 329 327 327 328 328 327 326 324 325 325 325 326 327 328 332 333 331 332 334 335 335 336 337 338 338 337 337 336 338 339 336 338 343 346 351 353 347 343 347 351 355 360 361 360 358 356 357 357 356 352 350 349 350 351 352 352 352 353
323 328 329 328 328 328 325 325 328 328 326 326 326 327 327 325 326 326 325 325 328 332 332 333 334 335 335 336 337 338 337 338 337 336 337 337 336 337 343 351 354 349 344 344 346 349 354 358 360 359 358 358 358 356 353 350 350 350 351 352 352 352 354
322 326 328 327 327 325 322 324 328 329 328 328 328 328 329 329 326 325 322 323 330 336 334 331 332 333 334 336 336 336 336 338 339 338 337 337 335 337 343 349 352 352 350 346 343 343 347 354 358 358 359 360 359 359 355 351 351 350 351 353 353 352 353
320 325 328 327 325 321 323 329 330 330 330 329 328 328 329 330 329 328 327 328 332 335 333 332 334 334 335 336 335 333 335 338 339 339 338 337 335 336 341 346 350 354 355 351 345 343 345 348 352 355 358 361 361 360 358 354 352 352 352 354 354 354 354
321 325 326 322 320 324 329 332 333 332 331 330 330 330 330 330 331 330 331 332 332 334 333 332 334 334 333 332 332 332 334 335 336 337 336 336 336 334 336 343 348 350 352 353 350 348 346 348 353 357 359 360 361 361 360 358 356 354 353 354 355 355 355
323 323 323 322 324 329 331 333 332 332 333 332 330 329 330 331 330 331 334 335 334 334 333 330 330 332 331 330 330 331 332 333 334 334 335 335 336 336 334 338 343 345 347 350 350 349 351 353 356 359 361 361 362 363 361 360 359 358 355 355 357 358 358
325 322 321 325 327 329 331 333 334 334 334 333 331 328 330 332 331 332 335 336 337 337 335 333 330 329 330 332 332 331 330 331 332 332 333 333 333 335 335 333 337 342 345 350 352 352 355 357 356 356 360 363 364 363 361 361 361 360 357 357 359 360 361
326 324 322 325 325 325 330 334 337 336 334 334 334 331 331 334 335 336 338 338 338 339 339 338 336 335 335 334 332 332 330 329 330 329 331 332 331 332 334 333 335 341 342 347 355 356 355 356 356 355 360 364 364 362 362 362 361 361 361 362 362 362 363
327 325 323 324 324 326 334 337 337 337 334 334 335 330 329 337 341 340 340 339 339 340 341 341 342 344 342 337 332 331 331 330 330 330 329 331 330 330 332 331 333 341 340 340 350 357 356 356 357 356 358 363 365 362 362 363 362 362 362 363 364 365 365
328 328 326 326 326 331 340 340 335 335 335 336 333 325 328 341 345 341 341 341 340 343 345 343 344 345 344 342 337 333 331 330 331 331 330 331 331 330 331 331 331 339 343 341 348 357 358 355 355 356 357 363 365 362 362 363 362 362 363 365 367 367 367
327 328 326 325 327 334 340 338 334 336 336 332 328 327 334 344 343 338 340 341 341 343 345 344 343 342 342 342 338 334 333 331 331 335 336 336 335 332 332 331 329 334 344 347 350 355 355 351 353 357 359 362 363 362 362 363 363 362 364 367 368 368 368
325 326 326 325 327 334 337 335 334 335 333 329 330 336 341 342 338 336 339 340 341 343 343 344 345 343 341 339 336 335 336 333 335 340 341 338 338 340 340 340 340 344 351 354 357 359 356 351 354 359 361 363 363 362 362 365 366 365 366 368 369 369 367
325 324 324 324 327 334 336 335 335 334 333 334 339 341 340 338 338 339 339 340 342 342 342 343 345 343 341 339 338 339 338 337 339 344 343 339 340 347 355 356 355 358 360 360 362 363 359 356 358 361 363 363 362 362 365 366 367 367 368 369 369 368 366
324 321 323 326 331 336 336 335 336 336 337 339 340 339 338 339 341 341 341 343 343 342 342 343 343 343 342 339 341 343 341 341 345 350 352 350 345 348 358 360 358 360 361 359 358 360 360 361 362 363 364 364 363 364 367 368 368 369 369 369 369 367 364
330 327 330 333 335 337 336 335 336 337 338 339 338 338 340 342 342 341 341 341 341 342 345 344 343 344 343 341 344 347 344 344 349 353 357 357 353 352 356 359 359 360 359 356 356 359 362 363 364 365 365 364 365 366 367 367 369 370 369 368 366 361 356
338 336 337 336 337 337 335 335 336 336 336 338 339 340 341 341 340 341 341 340 340 342 345 347 346 345 344 344 348 347 344 344 345 346 348 349 348 347 349 354 358 359 356 355 359 363 364 364 364 366 365 364 366 368 368 369 370 369 367 364 359 354 353
337 339 339 336 335 336 335 335 335 335 334 336 338 339 339 339 340 342 342 341 341 343 345 348 349 348 348 350 352 351 348 347 345 345 347 350 351 350 352 355 357 357 356 360 365 368 369 368 368 367 366 366 367 368 369 369 367 364 360 356 351 350 351
337 338 340 338 335 336 335 335 335 335 334 336 337 337 337 338 340 342 342 342 344 345 346 347 348 349 350 350 351 353 354 354 353 350 351 354 356 356 358 359 359 359 361 364 367 369 369 369 369 369 368 368 368 367 366 363 358 351 346 343 342 342 341
337 337 337 338 336 335 334 334 334 334 334 335 335 335 336 336 337 338 338 340 342 343 344 345 346 346 346 347 348 348 350 353 354 354 353 354 354 355 356 355 355 357 360 361 362 363 363 365 365 364 363 362 360 357 354 349 343 338 335 335 336 337 338
338 337 337 338 338 336 334 333 333 332 332 333 332 332 333 333 333 333 333 334 335 336 338 341 342 342 343 344 345 346 346 348 350 352 353 354 354 355 355 353 351 352 353 354 354 353 354 356 356 354 354 354 349 342 338 337 334 333 334 335 337 338 340
336 336 336 336 336 335 334 333 332 332 331 331 330 330 330 330 329 330 329 329 330 330 331 333 336 338 340 341 342 343 344 345 346 348 350 351 353 354 354 353 352 351 350 349 349 348 347 347 347 347 350 351 346 336 332 333 332 331 333 337 341 344 345
334 334 335 335 333 332 331 331 331 331 331 330 330 330 330 329 328 327 326 326 326 327 327 328 330 333 336 338 340 340 341 342 343 344 345 346 348 350 351 350 349 349 349 349 349 350 351 351 352 353 355 354 350 342 334 332 335 337 340 344 347 349 348
333 332 332 331 330 330 329 328 328 328 329 329 328 328 329 328 328 327 327 326 325 324 324 324 326 328 331 333 335 337 338 340 341 341 341 342 343 345 348 350 350 350 350 349 348 347 347 348 348 348 346 345 342 339 334 335 340 345 347 348 348 349 348
Wind_Speed
21 18 17 18 16 11 9 13 15 14 15 14 10 11 14 12 11 9 8 10 9 9 10 11 12 14 17 17 17 18 19 22 25 25 30 33 29 29 30 30 33 38 39 39 41 41 40 42 46 46 45 45 45 44 43 43 42 42 41 40 40 39 38
23 22 19 19 20 16 10 11 14 13 16 15 9 8 11 12 11 8 11 15 12 8 8 10 15 17 16 16 16 16 17 20 22 22 27 35 33 30 30 30 32 37 38 38 39 41 40 40 44 47 47 46 46 45 44 44 43 43 41 41 41 40 39
19 21 18 16 20 24 20 13 11 12 13 13 10 8 10 11 10 8 12 16 12 10 9 10 16 17 15 15 15 16 16 18 21 23 27 39 37 32 31 30 29 33 36 36 37 38 39 39 42 45 47 47 46 46 45 44 44 43 42 41 41 41 40
17 16 14 13 15 21 21 17 13 11 10 10 10 10 9 9 9 9 12 13 10 10 11 13 15 15 16 16 14 15 17 19 24 25 26 38 39 32 31 28 27 30 33 32 34 35 36 37 39 42 43 45 45 45 45 44 43 43 42 42 41 42 41
16 12 12 15 13 13 15 15 14 12 10 9 10 11 10 9 9 9 10 11 9 8 10 13 13 13 15 15 13 13 16 21 25 26 27 35 40 35 32 27 25 28 29 29 31 33 33 33 35 38 40 42 42 42 43 43 42 43 43 42 42 42 42
13 13 15 18 17 15 13 13 14 14 11 10 11 12 12 11 10 9 10 10 9 8 8 8 10 10 14 15 14 14 19 23 25 27 29 30 38 36 33 30 26 25 26 27 29 30 32 33 34 37 39 41 42 42 42 42 42 43 44 43 43 42 42
12 15 19 21 21 20 16 14 15 16 14 12 11 10 10 11 12 12 12 11 8 8 8 7 8 9 12 18 18 15 21 26 27 30 31 27 37 38 34 32 28 25 25 27 30 33 35 35 37 38 39 40 42 43 42 42 42 42 43 43 42 42 42
12 16 17 19 21 19 16 15 15 16 17 17 14 10 9 10 12 13 11 11 9 8 8 7 8 9 11 17 18 14 17 24 30 35 32 25 38 41 36 34 30 27 27 28 32 37 39 40 40 41 41 40 41 42 42 41 42 42 41 40 40 42 42
10 13 14 16 17 16 12 12 16 17 20 23 20 14 9 9 14 16 13 9 8 8 7 6 7 10 13 15 15 15 16 19 27 33 26 23 35 36 33 35 33 30 30 31 35 39 41 44 45 44 43 41 40 42 42 42 41 41 40 39 38 41 42
11 11 11 11 12 12 11 13 18 20 22 25 20 13 10 9 11 15 14 9 6 9 11 10 11 12 11 9 10 15 19 20 20 20 19 27 35 35 34 36 35 34 35 35 39 41 42 45 46 45 44 42 40 41 42 41 40 40 40 39 38 39 41
12 10 10 11 12 13 14 18 21 21 22 24 18 12 12 11 9 10 10 8 9 12 14 14 14 16 11 9 11 14 17 15 14 14 23 26 27 30 32 34 33 33 34 36 39 40 41 44 45 44 45 43 40 41 42 40 39 40 40 40 39 39 40
18 15 14 17 17 17 18 20 23 22 22 23 20 16 15 13 11 11 9 8 11 15 14 12 12 15 14 9 11 12 15 14 14 13 22 24 25 28 29 30 30 28 30 34 37 38 39 41 44 44 44 44 42 41 42 40 38 39 40 41 41 41 40
25 23 21 21 19 17 18 20 21 22 23 24 22 20 19 16 11 11 11 10 12 14 16 16 12 11 12 12 12 15 16 17 14 10 19 23 25 26 25 26 29 27 27 30 33 37 38 39 42 43 42 43 43 42 42 42 39 38 40 42 42 42 41
24 26 25 24 22 18 19 20 19 20 22 24 24 21 21 20 17 17 17 13 12 13 15 18 19 16 14 13 13 17 19 18 15 10 17 23 23 22 20 24 28 27 25 26 28 33 36 37 40 42 42 43 44 43 42 43 41 38 40 42 43 44 44
15 21 24 25 25 21 20 20 20 21 22 23 23 21 20 20 19 22 22 15 11 12 13 15 19 21 19 15 12 14 19 21 20 20 20 24 26 25 26 27 28 26 25 26 28 30 33 36 38 41 42 42 43 42 40 42 43 40 40 43 44 44 45
12 17 21 25 25 22 22 22 21 23 23 21 20 18 17 17 17 18 18 14 10 10 12 14 16 18 18 16 15 16 18 23 27 27 27 29 27 24 29 29 27 27 28 28 29 29 32 35 37 39 40 41 41 42 40 41 43 41 40 43 45 45 44
11 15 16 17 18 18 18 18 21 22 20 19 19 14 14 18 17 14 13 11 8 7 10 15 16 15 15 16 18 21 21 20 24 28 32 33 29 22 27 32 31 30 32 31 27 27 31 34 37 40 41 41 41 43 42 40 41 41 40 42 45 46 45
11 14 15 14 13 14 12 12 16 20 20 21 21 16 17 20 18 14 13 12 11 8 10 14 15 13 14 16 19 23 25 20 16 19 24 27 28 25 23 31 35 32 31 30 27 25 28 30 34 38 41 42 42 41 39 38 40 42 40 40 44 47 45
9 12 14 14 13 13 12 11 13 16 19 22 21 19 21 22 18 17 17 15 15 14 12 14 12 12 18 22 21 23 27 28 24 22 23 23 26 26 23 27 34 32 29 30 28 26 26 27 29 34 38 39 39 39 38 38 40 42 40 39 42 46 45
9 9 11 12 11 10 13 14 14 15 16 19 19 18 20 22 21 17 9 6 8 12 15 19 19 18 21 25 26 25 26 29 31 30 30 29 26 25 24 25 29 30 29 29 29 27 27 28 29 32 35 36 35 36 37 37 39 41 40 38 40 44 44
10 10 10 10 9 10 13 13 11 10 10 11 13 13 13 16 17 13 10 10 11 9 10 19 25 24 20 16 19 28 32 30 31 33 34 35 32 28 28 31 30 28 28 28 29 29 28 29 29 29 31 34 34 35 36 36 38 39 38 38 40 42 43
8 9 10 10 10 11 12 9 5 4 4 4 5 6 6 6 8 10 8 8 9 12 12 11 9 13 15 10 10 23 33 35 35 36 35 35 35 33 32 34 34 31 31 29 30 31 30 29 29 28 30 33 34 36 36 36 38 39 37 38 40 41 42
8 9 10 9 9 8 7 5 4 7 2 5 5 6 4 2 6 9 9 8 9 10 11 14 12 6 6 6 9 20 31 32 32 34 35 37 38 38 39 41 39 33 35 35 33 33 32 31 30 29 30 33 35 38 38 37 39 40 38 38 40 41 42
7 9 8 8 7 4 5 6 5 7 5 3 2 8 4 4 8 9 9 8 9 10 12 11 8 6 6 6 11 20 25 26 26 29 33 36 37 38 40 43 43 35 34 37 37 37 35 32 31 30 32 34 37 40 40 38 40 41 40 39 40 40 39
8 9 7 7 7 5 6 6 5 5 5 4 7 7 1 5 8 9 9 8 9 10 11 10 6 9 13 16 23 29 23 22 23 21 19 20 25 32 36 40 44 41 37 39 40 39 35 31 31 32 33 36 38 40 41 40 39 41 41 39 38 37 36
9 9 9 8 6 5 8 8 7 8 7 6 5 2 4 6 8 10 10 11 12 12 12 10 10 14 19 22 26 29 28 25 22 17 13 13 17 19 20 25 31 33 36 37 35 33 30 29 31 33 35 37 39 40 41 40 38 39 39 38 36 35 33
9 9 10 9 6 5 9 10 8 8 6 1 3 4 6 7 9 10 10 12 13 14 14 14 15 16 18 20 22 26 29 27 23 13 9 11 9 6 3 11 18 23 28 29 27 25 25 27 30 33 35 38 39 40 40 38 36 37 38 37 36 34 32
9 10 9 6 3 5 11 9 5 5 3 4 5 4 5 6 9 10 10 13 15 16 15 16 16 16 16 15 12 15 17 14 14 12 8 2 4 3 4 9 13 16 20 22 21 20 22 26 30 32 35 39 39 38 37 36 35 37 38 37 36 35 33
5 4 2 1 2 7 12 9 5 7 8 8 5 3 4 6 9 11 11 13 16 19 19 16 14 12 11 7 6 8 8 8 7 6 9 9 4 0 2 3 8 11 13 15 17 19 22 26 28 30 34 38 38 36 35 36 37 38 38 37 36 35 33
6 4 6 7 6 6 8 7 7 9 9 8 7 6 6 7 9 12 13 13 12 15 19 17 12 8 7 7 10 10 6 5 5 2 3 3 3 3 3 3 5 9 10 13 18 21 24 27 30 31 35 39 38 37 37 37 38 38 38 37 35 32 30
5 3 1 6 9 7 7 8 8 8 11 11 9 10 10 9 10 13 14 13 12 12 15 17 16 13 10 10 13 13 11 9 8 5 3 5 8 8 4 6 8 11 14 17 21 22 23 26 29 31 36 40 39 36 36 37 38 38 37 36 33 30 29
4 6 8 5 16 17 14 14 14 14 13 13 11 12 14 13 12 15 16 15 17 19 19 19 19 19 17 16 16 16 16 17 17 16 16 16 15 13 10 10 10 12 16 20 22 23 24 24 25 29 34 35 33 32 33 34 34 34 32 31 30 29 28
3 4 8 4 16 19 19 20 21 21 20 18 16 16 17 17 18 21 22 22 22 23 24 23 22 22 20 18 18 18 18 18 20 21 22 23 21 18 15 14 13 15 18 21 22 23 23 24 26 30 31 30 28 29 31 30 30 29 28 28 28 27 27
2 1 5 2 8 11 14 19 21 21 22 23 24 24 23 22 22 24 25 25 25 25 25 25 25 25 23 21 22 23 20 17 19 22 23 23 23 23 22 21 20 20 21 22 23 23 23 25 28 30 28 27 27 29 29 28 28 28 27 27 26 26 25
0 2 2 4 9 11 13 18 20 19 20 22 24 25 24 23 23 24 24 24 25 26 27 26 25 25 24 22 24 25 22 19 20 22 23 23 24 24 24 25 25 24 24 25 25 24 24 25 27 26 24 22 23 25 26 25 24 24 24 25 23 21 21
2 2 6 9 13 15 16 18 19 18 18 21 23 23 22 22 22 24 25 25 25 25 27 29 28 25 23 21 22 22 21 20 21 22 23 24 24 24 25 26 26 25 25 25 25 24 23 24 24 24 22 20 19 20 20 19 19 20 22 22 21 20 20
3 10 14 14 17 19 18 19 20 19 18 20 22 22 22 22 22 22 24 25 25 25 26 27 28 27 25 23 22 22 22 22 23 24 24 24 24 23 23 24 25 24 23 23 23 22 22 21 21 20 19 17 17 17 17 19 20 22 22 21 21 21 19
Wind_Direction
216 209 206 210 219 225 212 212 220 222 223 227 233 243 244 236 232 234 236 238 232 234 227 204 207 222 218 212 215 216 206 203 211 206 189 187 192 195 199 203 203 203 205 208 207 205 205 204 203 203 202 202 203 203 203 204 204 205 205 205 207 209 211
212 206 205 208 215 225 228 214 210 214 225 230 231 240 240 233 235 233 231 237 234 231 234 203 203 218 216 206 208 208 202 203 214 210 183 178 188 194 197 203 203 203 204 206 206 204 203 202 202 204 204 202 203 204 204 205 204 205 205 205 206 209 210
203 196 204 213 212 218 232 235 211 206 219 221 218 232 237 230 235 237 231 237 236 234 236 210 206 216 210 201 203 206 206 199 208 213 183 172 184 193 194 200 201 201 204 205 206 205 203 204 204 204 204 203 203 204 205 205 205 206 205 206 208 209 210
193 187 200 215 209 209 225 241 234 221 222 219 216 227 235 230 233 236 233 234 231 232 237 222 213 210 199 193 193 203 219 211 205 214 194 175 180 186 188 195 198 200 205 207 207 207 205 206 205 202 202 201 201 202 204 204 204 205 206 208 210 209 209
194 195 199 208 210 202 209 228 235 230 222 218 225 229 227 227 233 238 237 235 230 228 234 233 225 207 190 191 192 193 217 225 215 219 211 184 176 178 182 189 196 199 204 206 206 208 207 208 207 201 200 200 199 200 201 201 201 204 207 210 211 209 209
204 207 201 203 211 210 205 214 227 231 223 211 221 228 222 220 224 234 243 242 235 229 230 238 237 211 183 190 209 201 202 220 228 233 229 195 173 174 180 185 190 191 195 198 200 204 205 208 210 204 200 200 198 198 199 198 198 202 207 211 211 209 208
225 217 204 199 207 214 215 215 216 226 230 221 220 223 221 224 222 225 241 246 239 234 233 236 235 219 189 191 210 211 197 206 220 233 236 203 173 175 183 184 182 181 189 197 200 203 205 209 213 208 201 200 199 197 197 196 197 199 204 209 211 209 208
245 236 213 198 202 210 218 221 213 215 225 228 232 229 217 226 229 224 233 237 228 232 242 244 239 238 225 208 206 210 208 207 210 220 230 204 173 175 181 181 180 183 192 200 205 209 210 211 213 208 202 201 199 198 198 197 196 198 200 203 207 209 209
232 235 219 199 200 208 213 222 220 217 220 225 234 240 227 225 227 226 235 236 213 214 230 243 239 233 237 227 208 209 224 223 215 215 215 186 168 170 174 175 181 188 192 197 202 207 208 207 207 205 201 201 201 200 199 197 196 196 197 197 200 207 210
210 219 221 201 197 209 214 217 223 223 222 222 227 235 236 232 224 223 235 247 223 207 206 215 233 230 221 214 211 227 238 232 221 203 172 159 163 169 173 177 183 188 190 195 201 204 206 204 202 202 201 201 202 202 200 198 196 196 197 196 196 202 208
222 217 226 221 206 207 212 213 218 224 226 224 223 228 233 236 239 234 235 250 257 240 211 199 216 228 217 182 191 233 248 234 211 167 139 147 166 172 173 179 185 188 189 195 200 202 204 203 200 202 202 201 203 204 202 200 197 196 198 197 197 200 204
238 237 229 228 220 214 217 215 214 219 226 228 225 225 228 229 238 241 230 234 255 256 241 218 209 218 228 207 183 217 251 247 227 178 145 154 174 177 176 180 184 188 191 196 200 201 202 202 200 201 203 202 203 206 204 201 199 198 198 198 198 200 202
224 237 238 237 232 221 221 222 218 214 218 228 232 232 228 225 234 244 230 221 237 249 252 253 245 223 230 230 199 201 228 243 242 192 156 167 177 171 172 178 182 189 193 194 200 201 201 202 200 200 203 203 204 206 205 203 201 199 199 199 199 200 203
213 221 232 243 244 234 224 223 225 222 217 220 228 237 236 231 234 243 238 227 230 239 243 251 258 260 254 244 215 201 208 225 244 220 180 189 191 174 173 183 187 193 195 193 197 200 199 200 199 200 202 203 204 206 205 203 201 200 200 200 199 200 204
228 219 221 230 241 248 244 232 226 230 231 224 218 224 234 236 236 239 241 239 235 237 240 242 252 261 264 260 241 218 204 205 227 240 231 227 217 193 188 195 194 193 196 195 197 200 200 200 201 202 203 204 205 205 205 203 202 201 201 201 200 201 204
242 231 222 221 227 240 250 246 235 231 235 237 227 215 214 229 243 244 239 238 231 228 235 238 239 242 249 256 259 251 230 209 212 226 236 244 240 205 187 195 200 196 194 194 196 201 205 204 203 203 204 205 205 204 205 204 201 201 202 202 201 201 203
232 238 238 229 224 230 236 239 241 239 240 245 248 237 214 217 233 246 246 246 244 227 227 236 236 230 232 241 246 252 250 229 215 219 224 231 239 220 189 192 204 202 195 193 196 201 205 205 205 205 206 206 206 205 206 205 202 200 202 204 202 200 201
227 232 241 240 233 235 234 229 236 242 246 246 245 246 238 224 216 220 232 243 253 256 248 244 238 232 239 245 241 245 255 255 240 237 236 228 229 230 210 197 200 199 194 195 200 202 203 206 208 207 207 207 208 208 207 206 203 200 201 203 202 199 199
226 220 227 232 230 234 242 248 246 244 248 254 253 250 249 247 237 225 222 226 229 231 245 257 257 255 256 258 255 246 250 258 259 259 262 248 226 225 224 205 197 196 197 200 202 203 204 206 205 203 205 207 208 208 208 208 205 201 200 203 201 197 197
224 217 215 226 239 247 244 244 246 241 238 245 252 251 249 253 255 254 264 289 255 229 228 237 243 251 254 257 261 255 248 251 254 254 259 256 238 227 231 224 210 202 201 205 208 207 202 198 197 198 201 204 203 203 206 207 204 200 201 203 199 194 195
216 221 218 227 248 255 243 236 237 243 240 235 239 245 247 250 260 274 298 312 309 301 261 232 226 230 235 239 247 250 249 249 250 252 255 253 250 247 243 242 236 222 209 205 207 206 199 193 196 200 198 198 199 199 202 204 202 199 201 201 195 190 192
201 220 221 223 232 234 231 229 232 260 314 332 287 268 262 266 297 319 313 300 320 339 329 298 260 234 231 225 221 234 241 244 244 248 252 253 254 257 253 252 250 234 216 207 201 201 201 196 196 198 194 194 197 197 198 200 197 195 198 197 191 188 191
195 217 224 219 225 227 213 196 215 231 233 32 354 284 267 338 2 3 360 349 351 353 337 334 348 340 263 246 229 227 232 236 239 242 247 249 249 250 250 255 255 233 212 209 204 199 200 197 193 194 192 192 195 195 196 196 193 191 194 193 189 189 192
199 212 227 230 229 213 162 158 190 213 187 108 274 249 252 16 16 16 14 1 1 2 349 342 341 327 318 309 285 266 247 234 236 242 244 243 244 243 240 244 251 238 211 203 202 198 197 196 193 193 192 192 193 194 193 193 190 188 190 191 189 189 191
205 202 220 241 239 199 164 177 199 202 191 201 229 233 278 6 356 3 2 352 1 359 346 341 325 304 307 304 302 302 285 250 246 257 258 257 258 252 240 237 243 237 212 196 196 197 198 197 192 189 190 191 193 193 191 190 189 187 187 188 187 187 189
217 213 221 236 238 189 170 187 204 208 219 229 228 251 357 343 338 351 352 348 351 345 333 327 315 308 308 303 301 306 302 293 292 287 272 280 293 280 249 230 227 216 196 185 186 188 193 194 189 185 187 189 190 190 189 187 186 184 183 183 182 182 182
219 223 221 227 238 192 175 183 194 203 216 218 61 25 355 350 355 355 351 350 343 330 321 317 310 307 305 302 304 305 305 317 332 323 259 247 278 320 108 165 177 173 170 172 173 177 185 187 183 182 185 185 186 187 185 182 181 180 179 178 176 174 172
225 225 223 232 250 173 175 185 186 168 131 68 53 19 355 7 13 6 358 355 348 334 320 308 305 310 299 287 301 312 312 335 3 2 11 54 223 236 113 143 157 157 164 170 169 174 180 179 178 181 184 183 182 181 180 177 176 175 174 171 168 166 167
262 238 199 47 69 151 175 191 175 130 97 62 41 13 18 30 26 21 17 10 2 355 345 323 307 318 321 316 4 11 359 27 45 15 22 48 76 49 49 141 153 154 167 172 168 171 175 174 176 180 181 178 174 174 174 173 171 169 166 164 163 164 166
342 23 84 92 90 119 148 149 140 143 126 81 53 44 47 50 43 36 31 22 10 4 3 356 343 342 352 8 28 32 35 56 59 348 325 22 78 69 343 266 182 161 171 172 163 162 165 170 172 173 173 172 168 165 165 164 163 162 160 159 160 161 161
6 345 43 101 93 86 107 107 91 109 129 118 87 68 68 69 59 51 44 36 28 25 26 28 29 33 46 56 52 48 56 71 79 82 66 71 95 112 152 208 188 166 163 159 152 147 150 157 160 158 161 164 162 157 157 160 162 162 161 160 160 159 161
43 312 309 74 87 74 73 83 66 59 89 118 112 89 85 86 74 64 61 57 50 45 43 44 45 45 49 58 60 54 54 65 81 91 90 85 90 108 135 162 167 156 148 145 144 141 138 142 148 153 156 157 156 156 159 164 166 164 162 163 162 162 166
60 310 302 79 94 79 70 76 69 56 63 82 91 89 90 92 85 76 71 68 61 54 51 51 52 51 52 57 61 56 51 60 74 83 88 92 95 97 104 120 134 134 129 130 133 134 133 136 146 153 152 149 152 158 162 164 161 157 157 159 160 161 165
115 248 292 10 90 84 67 68 70 66 65 69 71 72 75 78 77 74 70 65 59 53 52 54 56 56 57 64 71 66 55 56 70 78 83 90 94 92 93 102 112 113 113 116 119 120 125 133 137 138 136 138 147 153 153 152 153 153 155 157 159 162 166
174 195 185 98 95 90 66 59 63 66 69 73 73 71 71 70 69 69 67 61 55 50 47 48 54 59 58 60 68 70 64 61 71 79 83 87 92 92 91 96 102 102 103 106 107 108 114 122 124 122 120 124 135 144 147 150 155 158 159 158 156 157 163
315 122 115 95 92 90 75 65 63 59 62 71 73 71 71 70 68 69 68 62 57 53 47 42 45 56 60 58 59 64 64 63 69 76 81 84 88 90 90 92 96 97 98 101 103 104 108 111 112 112 111 112 122 134 141 146 150 152 151 147 143 147 158
108 111 106 93 90 91 82 72 67 61 62 67 68 66 68 69 67 68 67 63 60 61 57 50 47 51 53 50 51 55 57 59 64 70 74 78 81 83 84 87 90 92 94 98 103 109 112 113 115 117 116 117 123 131 136 141 142 141 141 141 144 155 164